Location: Palomar Mountain Lodge
(33.3110°N, 116.8495°W)
Time: 03:19:23
(UTC-07:00)

Daily predictions for brighter satellites

Satellite Brightness Start Highest point End
(mag) Time Altitude Azimuth Time Altitude Azimuth Time Altitude Azimuth
CENTAUR R/B 4.4 02:03:44 23° NNW 02:03:44 23° NNW 02:07:16 10° N
CZ-2D R/B 4.4 02:06:17 10° NNE 02:08:00 19° NE 02:08:00 19° NE
CZ-4C R/B 4.3 02:04:21 10° NNW 02:07:39 30° NNW 02:07:39 30° NNW
Cosmos 1980 Rocket 4.5 02:19:02 10° NNW 02:20:20 17° NNW 02:20:20 17° NNW
Resurs 1-4 Rocket 4.2 02:23:42 10° NNE 02:25:41 23° NNE 02:25:41 23° NNE
Cosmos 2322 Rocket 4.2 02:27:10 10° N 02:31:32 22° ENE 02:32:27 21° ENE
Lacrosse 5 4.0 02:54:21 21° N 02:54:21 21° N 02:56:26 10° NNE
COSMOS 2455 4.1 03:00:10 35° E 03:00:10 35° E 03:04:43 10° NE
SL-16 R/B 3.7 03:22:58 31° NW 03:22:58 31° NW 03:26:15 10° NNW
ADEOS II 3.1 03:16:26 10° NNE 03:21:07 40° E 03:21:07 40° E
USA 229 DEB 3.9 03:43:09 51° SSE 03:44:27 59° ESE 03:51:06 10° NE
USA 229 3.9 03:43:14 50° SSE 03:44:34 59° ESE 03:51:13 10° NE
ARIANE 5 R/B 3.5 03:39:47 10° N 03:43:18 37° NNW 03:43:18 37° NNW
SL-16 R/B 2.7 03:40:03 10° NNW 03:44:05 48° NNW 03:44:05 48° NNW
Cosmos 1833 4.1 03:46:49 80° NNW 03:46:49 80° NNW 03:52:10 10° NNE
CZ-2D R/B 3.9 03:46:57 10° NNW 03:49:20 19° NW 03:49:20 19° NW
Tiangong 2 4.0 03:53:24 17° NNE 03:53:24 17° NNE 03:54:30 10° NE
Cosmos 1455 4.2 03:57:29 22° ESE 03:58:34 26° E 04:01:48 10° NNE
Cosmos 468 Rocket 4.3 04:02:24 46° SSE 04:03:37 59° ESE 04:08:42 10° NNE
Cosmos 2360 Rocket 2.7 03:59:51 10° NNW 04:05:27 60° ENE 04:11:01 10° SSE
Resurs 1-4 Rocket 4.2 04:05:24 10° NNW 04:06:46 13° NW 04:06:46 13° NW
Atlas Centaur 2 2.6 04:09:25 48° SSW 04:10:18 52° SSE 04:15:42 10° E
ADEOS 3.6 04:07:46 10° N 04:12:51 56° WNW 04:13:05 55° W
Cosmos 2315 Rocket 4.4 04:07:46 10° NNW 04:13:13 41° W 04:13:13 41° W
Cosmos 2322 Rocket 2.9 04:10:22 10° NW 04:14:07 35° WNW 04:14:07 35° WNW
Cosmos 405 3.9 04:19:12 10° N 04:21:28 38° NNW 04:21:28 38° NNW
NOSS 3-1 (C) 3.4 04:22:35 35° S 04:24:57 69° ESE 04:30:58 10° NE
Iridium 4 Rocket 4.5 04:24:04 10° NNW 04:29:17 34° W 04:29:25 33° W
Cosmos 2208 Rocket 4.1 04:29:53 42° SW 04:31:35 65° WNW 04:37:00 10° N
Sich 1 3.9 04:30:05 10° N 04:34:14 48° E 04:38:23 10° SSE
Cosmos 1892 2.5 04:38:11 10° N 04:42:00 79° W 04:44:08 25° S
GPS 2-05 Rocket1 2.6 04:42:15 59° NW 04:42:39 71° N 04:45:50 10° E
CZ-4B R/B 3.2 04:39:53 10° NNE 04:43:36 57° E 04:46:11 18° S
Cosmos 1825 4.5 04:40:40 10° NNE 04:43:50 25° ENE 04:47:00 10° SE
RUBIN 8/PSLV 4.5 04:40:34 10° N 04:44:59 75° WNW 04:47:17 27° SSW
COSMOS 2455 3.8 04:43:20 25° W 04:45:10 30° NW 04:50:23 10° N
Cosmos 2221 3.8 04:46:00 23° WNW 04:46:00 23° WNW 04:48:58 10° NNW
Okean O Rocket 3.4 04:43:48 10° NE 04:47:35 29° E 04:51:22 10° SSE
PSLV R/B 3.4 04:43:55 10° N 04:48:03 63° WNW 04:49:56 31° SSW
Cosmos 1745 Rocket 4.1 04:44:53 25° SSW 04:48:21 52° W 04:54:20 10° N
Meteor 1-27 4.3 04:42:44 10° S 04:48:32 85° E 04:54:16 10° N
Cosmos 841 Rocket 3.7 04:44:33 13° S 04:49:04 67° ESE 04:54:10 10° NNE
Helios 1A Rocket 4.3 04:49:00 10° NNW 04:52:15 23° WNW 04:52:21 22° WNW
Meteor 2-2 Rocket 4.2 04:47:51 16° SSW 04:52:29 72° W 04:58:20 10° N
Cosmos 2219 Rocket 3.5 04:48:39 10° N 04:54:02 43° ENE 04:59:24 10° SE
Cosmos 1633 Rocket 3.5 04:51:38 10° N 04:55:58 63° E 05:00:17 10° SSE
Cosmos 1814 Rocket 3.9 04:53:14 18° SSW 04:57:06 78° WNW 05:02:17 10° NNE
Cosmos 405 Rocket 3.2 04:56:30 31° SW 04:57:47 42° W 05:01:37 10° N
Shenzhou-11 Module 4.1 04:57:07 10° NW 04:59:35 24° NNE 05:02:03 10° ENE
Cosmos 990 Rocket 4.2 04:54:51 10° NNW 05:00:01 71° ENE 05:05:08 10° SSE
ADEOS II 3.4 04:56:56 10° NNW 05:00:43 21° WNW 05:02:03 19° W
Cosmos 1763 Rocket 3.5 04:59:43 21° SW 05:02:56 55° WNW 05:07:56 10° N
Cosmos 2322 3.7 05:00:55 10° NNW 05:06:26 56° WSW 05:11:55 10° S
Cosmos 1515 Rocket 4.1 05:04:39 10° S 05:09:02 60° E 05:13:24 10° NNE
Cosmos 2219 3.2 05:05:32 14° SSW 05:10:19 67° WNW 05:15:55 10° NNE
Cosmos 2237 4.4 05:07:28 10° NW 05:12:51 45° WSW 05:18:12 10° S
Meteor 2-3 Rocket 3.6 05:07:37 10° NNW 05:13:11 77° W 05:18:46 10° S
Meteor 1-28 Rocket 3.1 05:10:33 10° S 05:14:18 76° W 05:18:06 10° NNW
Cosmos 1709 Rocket 3.9 05:08:26 10° SSW 05:14:29 67° W 05:20:33 10° N
Cosmos 1805 Rocket 4.3 05:11:08 10° NNW 05:14:57 31° W 05:18:46 10° SSW
Cosmos 292 Rocket 4.4 05:12:45 18° SW 05:15:48 37° WNW 05:20:18 10° N
Cosmos 2298 Rocket 4.5 05:10:35 10° N 05:15:53 67° ENE 05:21:10 10° SSE
ARGOS Delta rocket 3.7 05:12:09 10° S 05:16:30 56° W 05:21:03 10° NNW
Meteor 1-31 Rocket 2.7 05:12:56 10° NNE 05:16:44 88° E 05:20:31 10° SSW
CZ-4B R/B 4.0 05:22:39 10° N 05:26:49 73° WNW 05:31:08 10° SSW
IDEFIX/ARIANE 42P 2.7 05:21:37 10° NNE 05:26:52 79° ESE 05:32:05 10° S
Tiangong 2 3.8 05:27:23 10° NW 05:29:19 15° N 05:31:14 10° NE
Cosmos 1151 Rocket 3.0 05:26:51 10° SSW 05:31:05 66° W 05:35:21 10° N
CZ-2C R/B 3.3 05:28:26 10° NNE 05:32:52 47° E 05:37:13 10° S
Cosmos 1455 4.0 05:32:29 12° WSW 05:34:11 15° WNW 05:36:30 10° NW
Cosmos 1408 2.9 05:31:22 10° NNW 05:34:55 44° W 05:38:28 10° SSW
NOSS 3-1 (A) 3.6 05:30:36 10° SW 05:35:55 49° NW 05:41:55 10° NNE
Meteor 1-4 Rocket 2.7 05:32:33 10° N 05:36:02 73° E 05:39:33 10° SSE
NOSS 0 Rocket 4.4 05:30:48 10° NNW 05:36:55 67° ENE 05:42:59 10° SSE
Cosmos 2082 4.1 05:35:00 10° S 05:40:34 66° ESE 05:46:09 10° NNE
Cosmos 2297 Rocket 2.3 05:35:07 10° SSW 05:40:45 87° ESE 05:46:25 10° NNE
Cosmos 540 Rocket 3.5 05:36:58 10° SSW 05:41:59 60° WNW 05:47:02 10° N
CZ-3 Stage 3 4.3 05:10:04 10° WNW 05:47:26 55° SW 05:53:51 10° SE
Cosmos 2360 Rocket 3.7 05:45:55 10° WNW 05:48:49 14° W 05:51:43 10° SW
Cosmos 389 Rocket 3.7 05:45:47 10° N 05:49:13 48° E 05:52:40 10° SSE
Meteor PRIRODA 4.4 05:45:51 10° N 05:49:16 34° WNW 05:52:39 10° SW
IRS-1C Rocket 4.3 05:44:31 10° NNE 05:49:47 80° ESE 05:55:02 10° S
CZ-4B R/B 3.3 05:46:39 10° N 05:52:10 63° WNW 05:57:34 10° SSW
